[[{"header":{"parameterUnit":"m.s-1","parameterCategory":1,"la1":30.2991,"la2":30.254,"lo1":-89.0895,"lo2":-89.0444,"dy":0.0017,"dx":0.0017,"nx":28,"ny":28,"refTime":"2023-09-20T03:00:00:Z","depth":0,"parameterNumber":2,"parameterNumberName":"U-component_of_WINDS"},"data":[0,0,0,0,0,0,0,0,0,0,0,0,0,0,0,0,0,0,0,0,0,0,0,0,0,0,0,0,0,0,0,0,0,0,0,0,0,0,0,0,0,0,0,0,0,0,0,0,0,0,0,0,0,0,0,0,0,0,-2.4639,-2.4639,0,-2.4646,-2.4646,-2.4646,-2.4529,-2.4525,-2.4522,-2.4519,-2.4534,-2.4538,-2.4541,0,0,0,0,0,0,0,0,0,0,0,0,0,-2.4536,-2.4538,-2.4639,-2.4639,-2.4639,-2.4646,-2.4646,-2.4646,-2.4529,-2.4525,-2.4521,-2.4518,-2.4533,-2.4537,-2.4541,0,0,0,0,0,0,0,0,0,0,0,0,0,-2.4566,-2.4539,-2.4639,-2.4582,-2.4577,-2.4646,-2.4646,-2.4646,-2.453,-2.4525,-2.452,-2.4516,-2.4532,-2.4537,-2.4542,-2.4669,0,0,-2.4557,-2.4559,0,0,0,0,0,0,0,0,-2.4564,-2.4569,-2.459,-2.4586,-2.458,-2.4581,-2.4614,-2.4654,-2.4531,-2.4548,-2.4519,-2.4514,-2.4554,-2.4557,-2.4569,-2.4669,-2.467,-2.4558,-2.4561,-2.4563,-2.4564,0,0,0,0,0,0,0,-2.4562,-2.4569,-2.4642,-2.4591,-2.4585,-2.4559,-2.4558,-2.4621,-2.4578,-2.4546,-2.4538,-2.454,-2.4551,-2.4565,-2.4569,-2.467,-2.4557,-2.4562,-2.4565,-2.4567,-2.4879,-2.4884,0,0,0,0,0,0,-2.4567,-2.4568,-2.4642,-2.4642,-2.456,-2.4565,-2.4563,-2.4586,-2.4577,-2.4571,-2.4544,-2.4534,-2.4558,-2.4563,-2.4569,-2.4719,-2.4563,-2.4568,-2.457,-2.4874,-2.488,-2.4886,0,0,0,0,0,0,-2.4565,-2.4574,-2.4642,-2.4603,-2.4609,-2.4571,-2.4598,-2.4589,-2.4602,-2.4575,-2.4568,-2.4565,-2.4555,-2.4562,-2.4645,-2.4718,-2.457,-2.4574,-2.4867,-2.4875,-2.4883,-2.502,0,0,0,0,0,0,-2.4562,-2.4574,-2.462,-2.4604,-2.4612,-2.4715,-2.4602,-2.4592,-2.461,-2.4598,-2.4593,-2.4588,-2.4551,-2.4638,-2.465,-2.4722,-2.4578,-2.4861,-2.4871,-2.488,-2.5009,-2.5032,-2.5051,0,0,0,0,0,-2.4559,-2.4659,-2.4623,-2.4632,-2.4667,-2.4719,-2.4724,-2.4677,-2.4616,-2.4664,-2.4647,-2.4588,-2.4708,-2.4647,-2.466,-2.4735,-2.4856,-2.4868,-2.4879,-2.5,-2.5027,-2.5051,0,0,0,0,0,0,-2.4687,-2.4656,-2.4615,-2.4713,-2.4719,-2.4699,-2.4757,-2.4708,-2.4734,-2.4722,-2.4665,-2.4665,-2.4759,-2.4755,-2.4688,-2.4859,-2.4772,-2.4787,-2.4859,-2.4885,-2.4906,-2.4906,-2.4583,0,0,0,0,0,-2.4726,-2.4768,-2.474,-2.4829,-2.4834,-2.4796,-2.4817,-2.478,-2.4786,-2.4789,-2.4778,-2.4788,-2.4828,-2.4856,-2.4891,-2.5007,-2.5007,-2.5066,-2.5087,-2.5104,-2.5119,-2.5184,-2.5211,-2.4924,-2.4924,-2.4924,0,0,-2.4808,-2.4796,-2.4827,-2.4855,-2.4855,-2.4904,-2.4799,-2.4854,-2.489,-2.4798,-2.4876,-2.4869,-2.4877,-2.4978,-2.5022,-2.4978,-2.5197,-2.5119,-2.5133,-2.5138,-2.5199,-2.5226,-2.525,-2.4932,-2.4931,-2.493,0,0,-2.4983,-2.4977,-2.5051,-2.5054,-2.5056,-2.503,-2.5048,-2.5036,-2.5027,-2.5104,-2.5037,-2.5081,-2.515,-2.5159,-2.5173,-2.5354,-2.5303,-2.5367,-2.5479,-2.5543,-2.5565,-2.5585,-2.5653,-2.5678,-2.5381,-2.5381,-2.5382,0,-2.5086,-2.5152,-2.5097,-2.5157,-2.5173,-2.5089,-2.5167,-2.5173,-2.5188,-2.5203,-2.5152,-2.5238,-2.5238,-2.5342,-2.5386,-2.5399,-2.5421,-2.5368,-2.5566,-2.5585,-2.5603,-2.5667,-2.5693,-2.5389,-2.5388,-2.5388,-2.5387,0,-2.528,-2.5328,-2.5389,-2.5403,-2.5426,-2.5495,-2.5453,-2.5483,-2.5445,-2.5426,-2.5508,-2.5504,-2.5538,-2.556,-2.5524,-2.566,-2.5633,-2.5575,-2.5486,-2.5639,-2.5699,-2.5723,-2.5401,-2.5398,-2.5396,-2.5394,0,0,-2.5536,-2.5519,-2.5543,-2.5549,-2.5546,-2.5584,-2.565,-2.5681,-2.571,-2.5724,-2.5781,-2.5842,-2.5789,-2.5805,-2.577,-2.5826,-2.5974,-2.5761,-2.5761,-2.5804,-2.6128,-2.6173,-2.6202,-2.5938,-2.5943,-2.5946,-2.6128,0,-2.5709,-2.5818,-2.5771,-2.5887,-2.5933,-2.5855,-2.5914,-2.592,-2.5904,-2.5944,-2.5927,-2.5972,-2.5897,-2.5907,-2.5958,-2.5944,-2.6038,-2.593,-2.5995,-2.5998,-2.5998,-2.6233,-2.6281,-2.6453,-2.6151,-2.6155,-2.6157,0,-2.5924,-2.5944,-2.6065,-2.6055,-2.6073,-2.6126,-2.6152,-2.6189,-2.6196,-2.6181,-2.62,-2.6153,-2.6222,-2.6131,-2.6227,-2.6155,-2.6179,-2.6177,-2.6182,-2.6189,-2.6089,-2.6249,-2.6506,-2.6533,-2.6193,-2.619,-2.6188,0,-2.6103,-2.616,-2.624,-2.6248,-2.6238,-2.6278,-2.6277,-2.6278,-2.6301,-2.6325,-2.634,-2.6373,-2.6392,-2.642,-2.6385,-2.6322,-2.6488,-2.6394,-2.6481,-2.6482,-2.6521,-2.652,-2.6789,-2.6532,-2.6532,-2.6531,-2.6531,0,-2.6301,-2.6379,-2.6321,-2.637,-2.6456,-2.6403,-2.649,-2.6481,-2.6483,-2.6533,-2.6468,-2.6516,-2.6465,-2.651,-2.6483,-2.6569,-2.6577,-2.657,-2.6562,-2.6577,-2.6579,-2.6594,-2.6582,-2.6538,-2.6537,-2.6535,-2.6534,0,-2.6517,-2.648,-2.6563,-2.6546,-2.6544,-2.6609,-2.6596,-2.6644,-2.6623,-2.6686,-2.6698,-2.6668,-2.6717,-2.6684,-2.6734,-2.6716,-2.683,-2.6804,-2.6827,-2.6821,-2.6911,-2.6905,-2.7202,-2.724,-2.6956,-2.6959,-2.6961,0,-2.6647,-2.6705,-2.6694,-2.6721,-2.6723,-2.6767,-2.679,-2.6741,-2.6768,-2.6781,-2.6828,-2.6871,-2.6904,-2.6987,-2.6972,-2.7011,-2.6988,-2.7089,-2.6993,-2.7008,-2.6993,-2.6991,-2.6999,-2.711,-2.7113,-2.7115,-2.7118,0,-2.6884,-2.6863,-2.6896,-2.6925,-2.6953,-2.6973,-2.6989,-2.7016,-2.6966,-2.7001,-2.7049,-2.7074,-2.7125,-2.717,-2.7203,-2.7205,-2.7156,-2.7148,-2.717,-2.7188,-2.72,-2.7198,-2.6883,-2.7142,-2.7139,-2.7137,-2.7136,-2.7135,-2.7063,-2.7111,-2.7112,-2.7152,-2.7158,-2.7175,-2.7219,-2.7204,-2.7242,-2.7278,-2.7247,-2.7307,-2.7316,-2.7354,-2.7363,-2.7411,-2.737,-2.7403,-2.7411,-2.7421,-2.7435,-2.719,-2.7417,-2.7416,-2.7415,-2.7415,-2.7414,0,-2.7299,-2.7295,-2.7333,-2.7356,-2.7389,-2.7335,-2.735,-2.7383,-2.7434,-2.7445,-2.7478,-2.7536,-2.758,-2.7568,-2.7609,-2.765,-2.7628,-2.7663,-2.7661,-2.7663,-2.7467,-2.7445,-2.7679,-2.7679,-2.7679,-2.7679,-2.7679,-2.7679,-2.7426,-2.7506,-2.7486,-2.757,-2.7567,-2.7622,-2.7636,-2.7652,-2.7661,-2.7727,-2.7763,-2.7753,-2.7757,-2.7797,-2.7837,-2.7833,-2.7852,-2.7896,-2.7884,-2.7702,-2.7676,-2.7651,-2.763,-2.79,-2.79,-2.8075,-2.8077,-2.8078]},{"header":{"parameterUnit":"m.s-1","parameterCategory":1,"la1":30.2991,"la2":30.254,"lo1":-89.0895,"lo2":-89.0444,"dy":0.0017,"dx":0.0017,"nx":28,"ny":28,"refTime":"2023-09-20T03:00:00:Z","depth":0,"parameterNumber":3,"parameterNumberName":"V-component_of_WINDS"},"data":[0,0,0,0,0,0,0,0,0,0,0,0,0,0,0,0,0,0,0,0,0,0,0,0,0,0,0,0,0,0,0,0,0,0,0,0,0,0,0,0,0,0,0,0,0,0,0,0,0,0,0,0,0,0,0,0,0,0,-4.1401,-4.14,0,-4.125,-4.1249,-4.1247,-4.1101,-4.1099,-4.1098,-4.1096,-4.0937,-4.0935,-4.0932,0,0,0,0,0,0,0,0,0,0,0,0,0,-4.1557,-4.1555,-4.1401,-4.1399,-4.1398,-4.1251,-4.1249,-4.1247,-4.1102,-4.1099,-4.1097,-4.1095,-4.0938,-4.0935,-4.0932,0,0,0,0,0,0,0,0,0,0,0,0,0,-4.1456,-4.1554,-4.1402,-4.1308,-4.1298,-4.1251,-4.1249,-4.1246,-4.1102,-4.1099,-4.1097,-4.1094,-4.0939,-4.0935,-4.0932,-4.0965,0,0,-4.092,-4.0919,0,0,0,0,0,0,0,0,-4.1462,-4.1451,-4.1323,-4.1314,-4.1303,-4.1192,-4.1245,-4.1152,-4.1103,-4.1176,-4.1096,-4.1093,-4.1024,-4.1013,-4.0991,-4.0957,-4.0951,-4.092,-4.0918,-4.0916,-4.0915,0,0,0,0,0,0,0,-4.1469,-4.1456,-4.1341,-4.1322,-4.1309,-4.1271,-4.1253,-4.1227,-4.1117,-4.117,-4.1159,-4.1143,-4.1018,-4.0995,-4.0986,-4.0948,-4.092,-4.0917,-4.0915,-4.0913,-4.0928,-4.0931,0,0,0,0,0,0,-4.1491,-4.1463,-4.1346,-4.1337,-4.1377,-4.127,-4.1251,-4.123,-4.1117,-4.1098,-4.1146,-4.1137,-4.1003,-4.0991,-4.098,-4.1007,-4.0916,-4.0913,-4.0911,-4.0926,-4.0929,-4.0932,0,0,0,0,0,0,-4.1495,-4.1482,-4.1352,-4.1397,-4.1377,-4.1271,-4.1249,-4.1229,-4.1205,-4.1099,-4.1079,-4.1143,-4.1,-4.0985,-4.0969,-4.1,-4.0911,-4.0908,-4.0923,-4.0927,-4.093,-4.1065,0,0,0,0,0,0,-4.15,-4.1485,-4.1498,-4.1398,-4.1376,-4.1346,-4.1251,-4.1228,-4.12,-4.1187,-4.1091,-4.1072,-4.0997,-4.0975,-4.0965,-4.0993,-4.0905,-4.0919,-4.0924,-4.0929,-4.1057,-4.1073,-4.1086,0,0,0,0,0,-4.1506,-4.1542,-4.1499,-4.1486,-4.139,-4.1348,-4.1335,-4.1248,-4.1203,-4.1214,-4.1145,-4.1075,-4.0999,-4.0975,-4.0962,-4.0989,-4.0917,-4.0923,-4.0929,-4.1051,-4.107,-4.1086,0,0,0,0,0,0,-4.1647,-4.1527,-4.1479,-4.1483,-4.1427,-4.1324,-4.1335,-4.1272,-4.1227,-4.1216,-4.1109,-4.1089,-4.1083,-4.1035,-4.101,-4.1013,-4.0948,-4.0951,-4.1045,-4.1062,-4.1077,-4.1087,-4.0902,0,0,0,0,0,-4.1679,-4.1657,-4.1552,-4.1566,-4.1541,-4.1443,-4.1422,-4.136,-4.1297,-4.1272,-4.1202,-4.1142,-4.1103,-4.108,-4.1039,-4.105,-4.1024,-4.1062,-4.1077,-4.1089,-4.1093,-4.109,-4.1104,-4.0951,-4.0951,-4.0951,0,0,-4.1744,-4.1675,-4.1668,-4.1593,-4.1542,-4.1518,-4.1424,-4.1405,-4.1385,-4.1268,-4.1247,-4.1194,-4.112,-4.1116,-4.111,-4.1075,-4.113,-4.1097,-4.1108,-4.1104,-4.1098,-4.1112,-4.1125,-4.0955,-4.0954,-4.0954,0,0,-4.1849,-4.1797,-4.1801,-4.1752,-4.1676,-4.1611,-4.1612,-4.1517,-4.1477,-4.1456,-4.1366,-4.1341,-4.1278,-4.1227,-4.1194,-4.1277,-4.1209,-4.1267,-4.1343,-4.1341,-4.1353,-4.1363,-4.1389,-4.14,-4.1271,-4.1272,-4.1272,0,-4.1939,-4.1902,-4.1811,-4.1796,-4.1764,-4.1658,-4.1659,-4.1615,-4.153,-4.1509,-4.1471,-4.1387,-4.133,-4.131,-4.1331,-4.1308,-4.1303,-4.1277,-4.1359,-4.1368,-4.1376,-4.14,-4.141,-4.1279,-4.1278,-4.1277,-4.1277,0,-4.2014,-4.199,-4.2002,-4.1922,-4.1892,-4.1885,-4.179,-4.177,-4.171,-4.1648,-4.1624,-4.1552,-4.1492,-4.1483,-4.1425,-4.1454,-4.1434,-4.138,-4.1311,-4.14,-4.142,-4.1428,-4.1289,-4.1287,-4.1285,-4.1283,0,0,-4.2204,-4.2073,-4.2078,-4.2039,-4.1947,-4.1925,-4.1912,-4.1855,-4.1838,-4.1782,-4.1766,-4.1714,-4.1662,-4.1623,-4.1558,-4.1557,-4.1623,-4.1501,-4.1498,-4.1523,-4.1645,-4.1685,-4.1697,-4.1578,-4.158,-4.1581,-4.165,0,-4.2291,-4.2263,-4.2179,-4.2176,-4.2149,-4.2047,-4.2035,-4.1976,-4.1917,-4.1884,-4.1818,-4.1781,-4.1717,-4.1693,-4.1687,-4.1616,-4.1645,-4.161,-4.1558,-4.1558,-4.1578,-4.1708,-4.1751,-4.182,-4.1658,-4.1659,-4.166,0,-4.2389,-4.234,-4.2334,-4.224,-4.2226,-4.2217,-4.2155,-4.2127,-4.2056,-4.2013,-4.1969,-4.1896,-4.1873,-4.1812,-4.1776,-4.1754,-4.1727,-4.1689,-4.1689,-4.1679,-4.1613,-4.1698,-4.1841,-4.185,-4.1672,-4.1671,-4.1671,0,-4.2524,-4.2456,-4.2443,-4.2413,-4.2304,-4.2299,-4.2253,-4.2179,-4.2149,-4.2095,-4.2074,-4.2018,-4.1987,-4.1943,-4.1856,-4.182,-4.1828,-4.1761,-4.1788,-4.179,-4.1793,-4.1793,-4.193,-4.1781,-4.1781,-4.1781,-4.1781,0,-4.2628,-4.2628,-4.2501,-4.2493,-4.2488,-4.239,-4.2387,-4.2331,-4.2266,-4.2242,-4.2151,-4.213,-4.2017,-4.1982,-4.1913,-4.1892,-4.1879,-4.184,-4.1822,-4.1847,-4.1852,-4.1826,-4.1818,-4.1784,-4.1783,-4.1783,-4.1782,0,-4.2777,-4.2693,-4.267,-4.2569,-4.2543,-4.2543,-4.2455,-4.2441,-4.2376,-4.2347,-4.2334,-4.2232,-4.2185,-4.2094,-4.2023,-4.1976,-4.1969,-4.1938,-4.1993,-4.1981,-4.2012,-4.2009,-4.2135,-4.2145,-4.1994,-4.1996,-4.1997,0,-4.2848,-4.2845,-4.2742,-4.2721,-4.2678,-4.2645,-4.2613,-4.2517,-4.2487,-4.2404,-4.24,-4.2347,-4.2299,-4.2229,-4.2146,-4.209,-4.2054,-4.2102,-4.2045,-4.207,-4.2051,-4.2051,-4.2048,-4.2115,-4.2117,-4.2119,-4.212,0,-4.2981,-4.2939,-4.2898,-4.2843,-4.2808,-4.2759,-4.2705,-4.2692,-4.2581,-4.2552,-4.2505,-4.2468,-4.2394,-4.2341,-4.2272,-4.2221,-4.2151,-4.2139,-4.2141,-4.2166,-4.2197,-4.2177,-4.2025,-4.2136,-4.2134,-4.2133,-4.2132,-4.2132,-4.309,-4.3081,-4.3007,-4.2964,-4.2913,-4.2864,-4.2845,-4.2778,-4.2737,-4.2671,-4.2616,-4.2572,-4.2496,-4.2397,-4.235,-4.2311,-4.2278,-4.2283,-4.2283,-4.2285,-4.2294,-4.2206,-4.2299,-4.2298,-4.2297,-4.2297,-4.2297,0,-4.3215,-4.3163,-4.3124,-4.3051,-4.3016,-4.2956,-4.2892,-4.2866,-4.2829,-4.2766,-4.2721,-4.2664,-4.2611,-4.2524,-4.2463,-4.2449,-4.2415,-4.2436,-4.2434,-4.2422,-4.2329,-4.2332,-4.2464,-4.2464,-4.2464,-4.2464,-4.2464,-4.2464,-4.3276,-4.3257,-4.3206,-4.316,-4.3106,-4.3063,-4.3031,-4.2984,-4.2933,-4.2874,-4.2831,-4.2775,-4.27,-4.2633,-4.258,-4.2555,-4.2536,-4.2566,-4.2531,-4.2445,-4.243,-4.2415,-4.2416,-4.2564,-4.2564,-4.2627,-4.2627,-4.2628]}]]